Wind_Speed
27 25 22 20 20 20 20 19 17 14 12 12 12 13 14 15 16 15 14 14 14 13 11 11 10 10 10 9 8 8 9 10 11 11 12 12 12 12 14 14 13 12 10 10
27 23 21 23 23 23 22 20 17 15 14 13 14 14 15 16 16 17 15 14 14 13 12 11 11 10 10 10 9 9 10 10 10 11 12 13 12 13 13 14 14 13 12 11
25 22 24 25 24 23 22 20 18 16 15 16 16 16 17 18 17 17 16 14 13 12 11 11 11 10 10 10 9 9 10 10 10 11 12 12 12 13 14 15 15 15 13 12
27 26 26 26 25 23 21 19 19 18 17 18 19 19 19 19 18 16 15 14 13 12 10 10 10 10 10 10 10 10 10 11 11 12 12 12 12 13 14 15 15 15 15 14
26 26 26 26 24 23 20 19 20 20 20 21 22 22 20 20 18 16 14 13 13 12 11 10 10 10 10 10 10 10 11 12 13 12 13 13 13 14 14 15 15 15 15 14
27 27 27 25 24 22 21 21 23 23 24 24 23 25 23 20 18 16 14 12 11 11 10 10 10 10 10 10 10 11 10 12 12 13 13 13 14 14 14 15 16 16 16 15
28 28 27 27 26 25 24 25 27 26 26 24 23 25 23 20 19 17 15 13 12 10 10 10 9 8 9 10 10 10 10 11 12 13 13 13 14 15 15 16 18 18 17 17
27 27 27 27 26 25 25 26 27 26 24 22 23 24 23 21 20 18 16 14 12 10 10 9 8 9 9 9 9 10 11 12 12 13 14 15 14 14 15 17 18 18 19 18
26 25 25 25 24 24 24 25 25 25 24 23 23 21 20 18 16 16 15 13 11 10 10 9 8 8 9 8 8 9 11 12 12 13 14 15 16 16 16 17 18 19 20 20
25 25 26 24 24 24 24 25 26 26 25 24 22 19 17 16 16 16 14 12 10 10 10 10 8 8 9 9 10 10 10 11 12 13 13 14 15 16 17 18 19 19 20 20
26 26 26 26 27 26 25 26 26 26 26 25 22 18 16 17 16 16 16 15 13 12 11 10 9 8 8 10 10 11 11 12 12 13 14 15 15 16 17 18 20 20 20 20
26 27 27 27 27 26 25 25 26 27 26 26 24 20 18 17 16 15 16 15 15 14 12 11 10 9 9 10 11 12 12 12 12 13 14 15 16 16 17 18 19 19 20 20
28 29 29 29 29 27 27 28 27 26 26 26 25 22 19 18 17 16 15 14 15 14 13 12 12 11 11 11 11 12 12 12 12 12 13 14 16 17 18 18 19 19 20 20
28 29 30 30 28 27 27 28 28 27 26 26 25 24 23 22 20 20 18 16 14 13 13 12 13 13 12 11 11 11 13 13 12 12 13 13 14 16 17 18 19 19 20 20
30 30 30 29 28 28 28 28 27 27 27 26 25 25 25 24 22 21 20 17 16 16 14 14 14 13 13 13 13 13 13 14 13 13 14 14 15 17 18 18 18 19 21 22
32 31 30 31 30 29 28 28 27 27 27 27 26 25 24 23 23 22 21 20 19 17 16 16 16 15 14 14 14 14 14 15 15 15 15 16 17 17 19 20 20 20 21 21
34 32 32 32 31 30 31 29 28 28 29 29 28 26 25 24 22 22 22 22 20 19 17 18 17 16 15 15 15 15 15 16 16 16 17 17 18 18 19 20 21 21 21 21
35 33 32 32 32 33 31 30 30 30 30 29 28 26 25 25 24 24 23 21 19 18 17 17 16 16 16 15 15 14 14 14 15 16 17 18 19 19 20 21 21 22 22 21
36 35 34 32 32 32 31 30 30 30 29 28 27 27 26 27 26 23 21 18 17 18 17 16 16 16 16 16 15 14 15 14 14 16 17 18 18 19 20 21 22 22 22 21
35 34 34 33 32 32 30 29 29 29 31 28 26 24 24 26 25 23 20 19 18 17 17 16 16 16 16 16 16 16 15 15 15 16 17 18 19 20 21 21 22 22 22 22
34 34 34 35 34 32 30 29 28 29 27 27 27 25 24 23 23 21 21 20 19 18 17 17 16 16 16 16 16 16 16 16 16 16 18 19 20 20 21 22 22 23 23 23
34 34 33 32 32 31 31 29 28 27 26 26 26 24 23 22 21 21 21 20 19 18 17 17 17 17 17 16 15 16 17 17 17 17 19 19 20 20 21 21 22 22 23 24
32 33 32 31 31 28 28 29 29 27 25 24 23 22 21 21 20 20 19 20 20 18 18 18 17 18 18 17 16 16 17 17 18 18 18 19 20 20 20 21 21 22 22 23
30 29 30 30 28 27 26 27 28 27 26 25 23 22 22 21 21 20 20 20 19 19 18 18 18 18 18 18 17 17 17 19 20 20 20 21 20 21 21 21 21 21 21 22
27 27 28 27 26 25 25 25 25 25 25 23 21 20 19 19 20 20 20 20 19 19 19 19 18 18 18 18 18 18 18 19 19 19 19 20 22 21 21 21 22 22 22 23
25 26 26 26 25 25 25 24 23 23 22 21 20 20 20 20 19 19 18 19 19 19 19 19 18 18 18 18 17 17 18 18 18 18 18 19 20 21 21 21 21 22 22 22
Wind_Direction
237 237 237 238 236 233 232 231 228 225 226 231 242 252 253 258 266 276 284 288 292 295 291 283 279 275 266 261 254 256 248 247 242 236 226 224 225 219 217 220 218 220 223 218
234 233 230 230 229 229 229 228 226 225 227 231 239 247 252 259 273 278 282 287 292 295 297 283 281 279 269 259 255 258 252 246 242 231 224 223 223 221 218 218 218 221 221 217
233 228 227 227 226 227 228 227 224 224 226 232 239 244 249 255 266 271 278 287 293 292 295 289 287 281 267 257 257 258 251 247 238 228 223 224 222 224 222 220 220 221 219 213
226 224 225 226 224 225 225 224 223 222 226 227 237 243 249 255 260 269 274 279 285 284 288 288 285 279 268 258 251 252 249 243 233 228 221 220 222 221 221 221 218 215 213 211
224 224 226 226 224 222 220 221 219 222 229 233 237 244 250 255 254 258 266 272 278 284 285 284 286 278 268 260 252 251 246 236 230 227 222 222 222 220 222 223 217 210 206 208
219 219 221 220 220 218 214 215 219 224 231 235 238 244 247 250 254 254 260 268 277 278 282 286 286 282 273 263 256 247 238 227 227 224 221 222 223 224 223 220 212 208 208 208
218 218 218 215 214 212 213 216 220 226 231 236 239 244 248 247 248 252 258 266 265 267 274 278 282 280 271 263 255 247 237 226 226 225 221 222 223 223 222 219 213 213 212 211
218 216 215 215 214 213 215 221 225 229 233 235 238 245 247 246 246 248 254 258 260 263 273 281 282 273 266 255 246 240 236 231 230 227 224 224 225 223 219 215 214 215 213 211
217 210 211 214 213 212 214 222 227 232 233 235 240 244 246 242 240 241 247 259 265 268 272 277 281 270 259 250 245 243 239 235 232 229 227 227 224 222 220 218 216 214 212 210
213 207 206 207 210 213 216 220 224 228 230 235 240 242 243 238 237 241 245 250 260 264 266 271 278 274 260 251 243 242 242 239 234 233 231 229 225 222 221 218 214 214 211 211
206 203 200 204 209 212 215 218 223 228 231 234 239 239 245 248 247 250 251 250 252 258 266 273 268 269 267 256 248 245 243 240 237 235 233 229 228 226 222 216 212 212 212 212
203 202 200 206 210 214 220 222 224 227 231 235 241 242 244 249 248 252 251 251 255 257 262 267 265 267 266 262 252 247 244 242 238 235 232 229 227 226 221 214 211 213 211 210
204 204 201 204 209 212 217 221 224 228 233 237 242 244 242 243 248 255 255 256 258 258 258 264 268 273 273 268 259 248 245 243 238 233 230 229 227 223 214 211 209 208 208 211
208 209 208 209 212 216 219 221 224 229 233 237 241 245 246 250 254 256 258 256 257 260 267 267 266 271 271 266 259 253 245 241 238 233 228 224 218 212 208 207 209 208 210 213
209 213 212 213 215 218 222 225 229 233 237 241 243 244 248 253 256 260 261 257 260 262 266 267 264 267 266 264 263 255 247 241 237 231 228 222 214 211 211 211 212 213 214 216
212 216 215 216 217 219 223 225 229 233 236 241 243 245 248 252 255 259 260 258 261 262 263 265 264 264 263 262 260 256 250 240 235 231 227 221 215 215 215 216 217 219 219 220
215 217 218 219 218 221 225 226 228 231 236 240 245 249 254 254 253 256 259 261 260 262 259 258 259 260 260 259 257 254 249 241 234 229 224 222 222 220 219 219 219 220 220 222
215 217 219 220 220 223 226 228 230 231 235 241 247 250 252 253 256 257 259 260 256 258 255 255 255 256 256 255 252 247 242 237 231 226 223 224 223 222 221 220 219 220 221 222
217 219 221 222 225 227 228 231 233 233 237 241 245 247 249 252 255 254 256 256 256 256 256 254 253 254 256 252 245 239 239 237 231 226 222 222 222 222 221 220 221 223 224 225
218 220 223 223 227 229 228 231 233 234 236 240 243 246 248 251 251 250 252 252 252 253 253 253 250 251 253 249 242 238 235 234 230 225 223 223 224 222 221 222 224 226 226 227
218 221 222 224 228 231 231 232 233 236 238 239 242 246 251 253 252 250 251 249 249 250 250 253 250 250 248 245 239 236 233 232 231 229 227 226 224 222 222 224 226 227 228 230
218 220 222 223 226 229 231 233 236 240 240 243 242 245 248 250 250 249 248 247 247 247 250 252 250 247 245 243 239 236 234 233 231 232 230 228 228 226 224 226 228 231 233 235
218 220 222 224 227 230 233 235 238 241 243 246 244 240 242 245 247 249 249 249 246 249 251 249 247 245 242 241 240 238 235 234 230 231 230 229 229 228 227 229 232 235 238 240
221 222 223 225 227 230 233 235 237 241 244 247 242 237 242 244 246 248 245 245 246 248 249 247 245 243 241 241 243 240 237 233 230 231 230 230 229 230 231 232 233 235 238 242
223 222 221 222 223 226 229 232 235 236 240 241 238 238 242 244 245 245 244 245 246 247 246 245 244 243 242 242 244 242 239 238 234 232 231 230 230 232 235 236 236 236 241 246
217 219 221 222 222 227 231 233 234 233 234 237 238 239 240 243 245 244 244 246 246 245 245 244 244 245 243 243 243 241 239 239 239 236 235 234 234 236 238 239 241 244 247 251
Height
5830 5834 5837 5841 5842 5844 5845 5847 5849 5850 5851 5852 5852 5854 5854 5854 5854 5855 5855 5856 5856 5855 5854 5852 5852 5852 5852 5852 5853 5854 5855 5855 5857 5859 5861 5862 5864 5866 5868 5870 5872 5874 5876 5878
5824 5829 5833 5833 5836 5838 5840 5842 5845 5847 5847 5848 5849 5850 5850 5851 5851 5851 5852 5852 5852 5851 5849 5848 5848 5848 5848 5849 5849 5850 5851 5852 5854 5856 5858 5860 5861 5863 5865 5867 5870 5872 5874 5876
5819 5825 5825 5827 5830 5833 5835 5838 5841 5843 5843 5844 5845 5846 5847 5848 5848 5848 5848 5849 5849 5848 5847 5845 5845 5845 5845 5845 5846 5847 5848 5849 5851 5853 5855 5857 5858 5860 5862 5865 5868 5870 5872 5873
5812 5816 5818 5821 5825 5828 5831 5835 5837 5838 5839 5840 5843 5843 5844 5845 5845 5845 5846 5846 5846 5845 5844 5843 5843 5843 5843 5843 5843 5844 5845 5847 5848 5850 5852 5854 5856 5858 5860 5862 5865 5867 5869 5872
5807 5811 5813 5816 5821 5823 5827 5830 5832 5834 5835 5836 5838 5839 5841 5841 5842 5843 5843 5843 5842 5842 5842 5841 5840 5840 5840 5841 5841 5841 5842 5843 5845 5847 5850 5852 5853 5855 5857 5859 5862 5864 5867 5869
5800 5804 5807 5812 5816 5819 5822 5825 5827 5828 5830 5832 5834 5835 5836 5838 5839 5840 5840 5840 5839 5839 5839 5839 5838 5838 5838 5838 5837 5838 5839 5840 5842 5844 5846 5848 5850 5852 5854 5857 5859 5862 5865 5867
5793 5797 5801 5805 5809 5812 5816 5819 5822 5823 5825 5828 5830 5830 5832 5834 5835 5836 5836 5836 5836 5836 5836 5836 5836 5836 5836 5835 5835 5836 5837 5838 5840 5841 5843 5845 5847 5849 5852 5854 5856 5859 5862 5865
5787 5792 5796 5799 5803 5807 5811 5814 5818 5820 5822 5824 5825 5825 5828 5829 5830 5831 5832 5832 5832 5833 5833 5833 5833 5833 5833 5833 5833 5834 5835 5836 5837 5839 5840 5842 5844 5846 5849 5851 5853 5856 5859 5861
5783 5788 5792 5796 5800 5803 5806 5809 5813 5816 5818 5819 5820 5822 5823 5823 5825 5826 5828 5828 5828 5829 5830 5830 5830 5830 5830 5831 5831 5831 5832 5833 5835 5836 5837 5839 5841 5843 5845 5848 5850 5853 5855 5858
5778 5783 5787 5791 5795 5798 5802 5805 5808 5810 5812 5814 5816 5818 5819 5819 5821 5823 5824 5825 5825 5827 5828 5828 5828 5827 5828 5828 5829 5829 5830 5831 5832 5833 5834 5836 5837 5840 5842 5844 5847 5850 5852 5855
5773 5777 5782 5786 5789 5792 5797 5800 5802 5805 5808 5810 5812 5816 5816 5816 5817 5818 5820 5821 5823 5824 5825 5825 5825 5825 5824 5825 5826 5826 5827 5828 5829 5830 5831 5832 5834 5836 5838 5840 5843 5846 5849 5851
5767 5772 5776 5781 5785 5789 5792 5795 5798 5801 5803 5806 5808 5813 5812 5812 5813 5814 5816 5818 5820 5821 5822 5822 5821 5821 5821 5821 5822 5823 5824 5825 5825 5826 5827 5829 5831 5833 5835 5837 5839 5842 5845 5848
5762 5766 5771 5776 5781 5784 5786 5790 5793 5796 5799 5801 5804 5809 5808 5809 5810 5810 5812 5814 5815 5816 5817 5817 5817 5818 5818 5818 5819 5819 5820 5821 5822 5823 5824 5825 5827 5829 5831 5833 5836 5839 5842 5845
5758 5762 5767 5771 5775 5779 5781 5785 5788 5791 5794 5796 5799 5802 5803 5805 5806 5807 5808 5809 5811 5812 5813 5813 5814 5814 5814 5815 5815 5816 5817 5818 5818 5819 5820 5822 5823 5825 5828 5830 5833 5836 5839 5842
5752 5756 5761 5767 5771 5774 5778 5781 5784 5787 5789 5792 5794 5796 5798 5800 5802 5803 5804 5805 5807 5808 5809 5810 5810 5811 5811 5811 5812 5812 5813 5814 5815 5816 5817 5818 5820 5822 5825 5828 5830 5833 5835 5838
5747 5752 5757 5762 5766 5769 5772 5776 5779 5782 5784 5786 5789 5792 5793 5795 5797 5798 5799 5801 5803 5804 5805 5806 5806 5807 5807 5808 5808 5808 5809 5810 5811 5813 5814 5815 5817 5819 5822 5825 5827 5829 5831 5834
5742 5747 5752 5756 5760 5764 5767 5771 5773 5776 5779 5782 5784 5787 5788 5790 5792 5794 5795 5796 5798 5799 5800 5801 5801 5802 5803 5803 5804 5804 5805 5806 5807 5808 5810 5812 5814 5816 5819 5821 5823 5825 5828 5830
5737 5742 5746 5750 5755 5758 5764 5765 5768 5770 5773 5776 5778 5781 5783 5785 5787 5788 5790 5791 5792 5794 5795 5796 5797 5797 5798 5798 5799 5799 5800 5801 5803 5804 5806 5808 5810 5812 5814 5817 5819 5821 5824 5827
5732 5737 5740 5744 5748 5752 5757 5760 5762 5765 5768 5770 5772 5775 5777 5778 5781 5783 5784 5785 5787 5788 5789 5791 5792 5792 5793 5793 5794 5795 5796 5798 5799 5801 5802 5804 5806 5809 5810 5813 5816 5818 5821 5823
5726 5730 5735 5739 5742 5746 5752 5754 5756 5760 5762 5765 5767 5769 5771 5773 5775 5778 5779 5780 5782 5783 5784 5786 5787 5788 5788 5789 5790 5791 5793 5794 5795 5797 5799 5801 5803 5805 5807 5809 5812 5814 5817 5819
5720 5725 5729 5733 5737 5741 5745 5748 5751 5755 5758 5760 5762 5764 5766 5767 5770 5772 5773 5775 5776 5778 5779 5781 5782 5782 5783 5784 5786 5787 5789 5790 5792 5793 5795 5797 5799 5801 5803 5805 5807 5810 5812 5814
5714 5719 5723 5727 5731 5737 5739 5742 5746 5749 5751 5754 5756 5759 5760 5762 5764 5765 5767 5769 5770 5772 5774 5776 5777 5778 5779 5780 5782 5783 5785 5786 5788 5789 5791 5794 5795 5797 5799 5801 5803 5805 5807 5809
5708 5713 5718 5723 5728 5731 5734 5737 5740 5742 5745 5748 5750 5753 5755 5757 5759 5760 5762 5763 5765 5767 5768 5770 5772 5773 5774 5776 5777 5779 5780 5781 5783 5785 5787 5789 5791 5793 5795 5797 5799 5801 5802 5804
5703 5708 5713 5717 5721 5725 5728 5731 5733 5736 5739 5741 5744 5747 5750 5752 5754 5755 5757 5758 5760 5762 5763 5764 5766 5768 5769 5771 5772 5774 5775 5777 5779 5781 5783 5785 5787 5789 5790 5792 5794 5796 5797 5798
5698 5703 5707 5711 5715 5719 5722 5725 5728 5730 5733 5735 5738 5742 5744 5746 5748 5750 5752 5753 5755 5756 5758 5759 5761 5763 5765 5766 5767 5769 5771 5772 5774 5776 5778 5780 5782 5784 5786 5788 5789 5790 5792 5793
5694 5698 5702 5706 5710 5714 5717 5720 5722 5725 5728 5730 5732 5735 5738 5740 5742 5745 5746 5748 5750 5752 5753 5755 5756 5758 5760 5762 5763 5764 5766 5768 5770 5772 5773 5775 5777 5779 5781 5782 5783 5785 5786 5787